Probability
0 0 0 0 0 0 0 0 0 0 0 0 0 0 0 0 0 0 0 0 0 0 0 0 0 0 0 0 0 1 2 3 1 0 0 0 0 0 0 0 0 0 0 0
0 0 0 0 0 0 0 0 0 0 0 0 0 0 0 0 0 0 0 0 0 0 0 0 0 0 0 0 0 1 2 3 2 1 0 0 0 0 0 0 0 0 0 0
0 0 0 0 0 0 0 0 0 0 0 0 0 0 0 0 0 0 0 0 0 0 0 0 0 0 0 0 0 0 1 2 2 1 0 0 0 0 0 0 0 0 0 0
0 0 0 0 0 0 0 0 0 0 0 0 0 0 0 0 0 0 0 0 0 0 0 0 0 0 0 0 0 0 0 1 1 0 0 0 0 0 0 0 0 0 0 0
0 0 0 0 0 0 0 0 0 0 0 0 0 0 0 0 0 0 0 0 0 0 0 0 0 0 0 0 0 0 0 0 0 0 0 0 0 0 0 0 0 0 0 0
0 0 0 0 0 0 0 0 0 0 0 0 0 0 0 0 0 0 0 0 0 0 0 0 0 0 0 0 0 0 0 0 0 0 0 0 0 0 0 0 0 0 0 0
0 0 0 0 0 0 0 0 0 0 0 0 0 0 0 0 0 0 0 0 0 0 0 0 0 0 0 0 0 0 0 0 0 0 0 0 0 0 0 0 0 0 0 0
0 0 0 0 0 0 0 0 0 0 0 0 0 0 0 0 0 0 0 0 0 0 0 0 0 0 0 0 0 0 0 0 0 0 0 0 0 0 0 0 0 0 0 0
0 0 0 0 0 0 0 0 0 0 0 0 0 0 0 0 0 0 0 0 0 0 0 0 0 0 0 0 0 0 0 0 0 0 0 0 0 0 0 0 0 0 0 0
0 0 0 0 0 0 0 0 0 0 0 0 0 0 0 0 0 0 0 0 0 0 0 0 0 0 0 0 0 0 0 0 0 0 0 0 0 0 0 0 0 0 0 0
0 0 0 0 0 0 0 0 0 0 0 0 0 0 0 0 0 0 0 0 0 0 0 0 0 0 0 0 0 0 0 0 0 0 0 0 0 0 0 0 0 0 0 0
0 0 0 0 0 0 0 0 0 0 0 0 0 0 0 0 0 0 0 0 0 0 0 0 0 0 0 0 0 0 0 0 0 0 0 0 0 0 0 0 0 0 0 0
0 0 0 0 0 0 0 0 0 0 0 0 0 0 0 0 0 0 0 0 0 0 0 0 0 0 0 0 0 0 0 0 0 0 0 0 0 0 0 0 0 0 0 0
0 0 0 0 0 0 0 0 0 0 0 0 0 0 0 0 0 0 0 0 0 0 0 0 0 0 0 0 0 0 0 0 0 0 0 0 0 0 0 0 0 0 0 0
0 0 0 0 0 0 0 0 0 0 0 0 0 0 0 0 0 0 0 0 0 0 0 0 0 0 0 0 0 0 0 0 0 0 0 0 0 0 0 0 0 0 0 0
0 0 0 0 0 0 0 0 0 0 0 0 0 0 0 0 0 0 0 0 0 0 0 0 0 0 0 0 0 0 0 0 0 0 0 0 0 0 0 0 0 0 0 0
0 0 0 0 0 0 0 0 0 0 0 0 0 0 0 0 0 0 0 0 0 0 0 0 0 0 0 0 0 0 0 0 0 0 0 0 0 0 0 0 0 0 0 0
0 0 0 0 0 0 0 0 0 0 0 0 0 0 0 0 0 0 0 0 0 0 0 0 0 0 0 0 0 0 0 0 0 0 0 0 0 0 0 0 0 0 0 0
0 0 0 0 0 0 0 0 0 0 0 0 0 0 0 0 0 0 0 0 0 0 0 0 0 0 0 0 0 0 0 0 0 0 0 0 0 0 0 0 0 0 0 0
0 0 0 0 0 0 0 0 0 0 0 0 0 0 0 0 0 0 0 0 0 0 0 0 0 0 0 0 0 0 0 0 0 0 0 0 0 0 0 0 0 0 0 0
0 0 0 0 0 0 0 0 0 0 0 0 0 0 0 0 0 0 0 0 0 0 0 0 0 0 0 0 0 0 0 0 0 0 0 0 0 0 0 0 0 0 0 0
0 0 0 0 0 0 0 0 0 0 0 0 0 0 0 0 0 0 0 0 0 0 0 0 0 0 0 0 0 0 0 0 0 0 0 0 0 0 0 0 0 0 0 0
0 0 0 0 0 0 0 0 0 0 0 0 0 0 0 0 0 0 0 0 0 0 0 0 0 0 0 0 0 0 0 0 0 0 0 0 0 0 0 0 0 0 0 0
0 0 0 0 0 0 0 0 0 0 0 0 0 0 0 0 0 0 0 0 0 0 0 0 0 0 0 0 0 0 0 0 0 0 0 0 0 0 0 0 0 0 0 0
0 0 0 0 0 0 0 0 0 0 0 0 0 0 0 0 0 0 0 0 0 0 0 0 0 0 0 0 0 0 0 0 0 0 0 0 0 0 0 0 0 0 0 0
0 0 0 0 0 0 0 0 0 0 0 0 0 0 0 0 0 0 0 0 0 0 0 0 0 0 0 0 0 0 0 0 0 0 0 0 0 0 0 0 0 0 0 0
0 0 0 0 0 0 0 0 0 0 0 0 0 0 0 0 0 0 0 0 0 0 0 0 0 0 0 0 0 0 0 0 0 0 0 0 0 0 0 0 0 0 0 0
Wind_Speed
5 4 3 4 6 7 8 8 8 9 9 11 7 5 4 4 4 4 3 3 3 3 4 3 3 3 3 2 2 2 2 3 3 3 3 3 3 3 3 3 4 4 4 4
3 3 4 6 7 9 9 8 9 8 11 9 4 2 2 4 4 4 4 4 4 4 4 4 4 4 3 3 2 2 2 3 3 2 2 2 3 3 3 3 3 3 4 4
3 2 1 8 9 10 8 7 8 11 10 4 3 3 4 4 4 4 5 4 5 5 5 4 4 4 4 3 2 2 2 2 2 2 2 2 2 3 3 3 3 3 4 4
1 1 7 9 3 6 7 7 7 5 4 4 5 5 4 4 4 4 5 5 5 5 4 4 4 3 3 2 1 2 2 2 2 2 2 2 2 3 3 3 3 3 3 4
3 3 8 7 3 4 5 6 5 6 6 5 4 2 3 3 3 4 5 5 5 4 4 4 4 3 2 2 1 1 2 2 2 2 2 2 2 3 2 2 3 3 3 3
3 4 7 7 2 1 3 5 4 4 5 4 1 2 5 3 4 5 4 3 3 3 3 3 4 2 2 2 2 3 3 3 2 2 2 2 3 3 2 2 2 3 3 3
5 5 9 6 2 3 4 7 2 3 3 3 3 6 5 5 4 4 3 3 3 3 3 3 3 2 2 2 3 4 3 2 2 2 2 2 2 2 2 1 1 2 2 2
4 5 9 2 4 5 6 2 1 3 3 3 5 5 4 4 4 4 4 3 3 3 4 3 2 1 2 3 4 2 2 2 2 2 2 1 1 2 1 1 1 1 1 2
8 8 4 3 4 3 2 2 2 3 3 3 4 4 4 4 4 4 4 4 3 3 4 4 2 1 3 4 2 2 2 2 2 2 2 1 1 1 1 1 1 1 1 1
4 6 4 3 2 2 2 2 3 3 3 3 4 5 5 4 4 4 3 3 3 3 3 4 3 2 2 2 2 2 2 2 2 1 2 1 1 1 1 1 1 1 1 2
5 5 3 3 3 3 2 2 2 2 2 3 3 4 4 4 4 3 3 3 2 3 3 4 4 3 2 2 1 1 2 2 2 2 2 1 1 1 1 1 2 2 2 2
7 6 5 5 4 2 2 3 2 2 3 3 3 4 4 4 3 3 3 3 3 3 3 4 4 4 3 2 1 2 2 2 2 1 1 1 1 1 2 2 3 3 3 2
6 4 3 4 3 2 3 3 2 2 3 3 3 3 3 3 3 2 3 3 3 3 3 3 3 4 4 2 2 2 3 2 2 1 1 1 1 1 1 2 3 3 3 3
3 2 2 3 3 2 2 2 1 1 2 2 2 2 2 2 3 3 3 4 3 3 3 3 3 4 4 3 2 2 2 3 2 2 2 1 2 2 2 1 2 2 3 3
2 2 4 3 2 1 1 1 1 2 2 3 2 2 2 2 3 4 4 3 3 3 3 3 3 4 4 2 2 2 2 2 2 1 1 2 2 2 1 2 2 2 2 2
1 0 1 2 2 2 1 1 1 3 3 3 3 3 3 3 3 4 3 3 2 3 4 3 4 4 3 3 2 2 2 2 2 1 1 1 1 2 2 2 2 2 2 2
2 2 3 3 3 3 2 3 3 3 3 3 4 4 3 2 3 4 4 3 3 4 4 3 4 4 3 3 2 2 1 2 2 1 2 2 2 2 2 2 2 2 2 3
4 5 5 5 4 3 3 3 3 3 3 3 3 2 2 2 3 4 4 4 4 4 4 4 4 4 3 3 2 2 1 1 1 1 1 2 2 1 2 2 2 3 2 2
2 2 2 3 3 3 3 3 3 3 3 2 2 2 3 3 3 3 3 3 3 4 5 5 6 4 3 4 3 1 1 1 1 1 1 2 2 1 2 2 2 2 2 1
1 1 1 1 1 2 2 2 2 2 2 2 2 2 2 3 3 3 2 3 3 4 5 5 4 3 3 3 2 1 1 1 1 1 1 1 1 1 2 2 2 2 2 2
1 1 1 1 1 2 2 2 2 2 2 2 2 2 3 4 3 2 2 3 4 5 5 6 3 3 3 3 2 1 1 1 1 1 1 1 1 1 1 2 2 1 1 1
2 2 2 2 1 2 2 2 2 2 2 2 2 2 3 3 3 3 3 3 4 6 4 3 3 4 4 3 1 1 1 2 1 1 1 1 1 2 2 2 2 1 1 1
2 2 2 2 2 2 2 2 2 2 2 3 3 3 3 3 2 2 4 3 3 5 3 3 5 6 5 2 1 1 1 1 1 1 2 2 1 1 2 2 2 1 1 1
2 2 1 1 1 1 2 2 2 2 2 3 3 3 3 2 3 3 3 5 6 5 3 4 6 5 3 1 1 1 1 1 1 2 2 1 1 1 1 1 1 1 1 1
2 2 2 2 2 2 2 1 1 1 2 2 2 3 2 2 3 3 3 3 5 4 3 4 5 5 2 1 1 1 1 1 1 1 1 1 1 1 1 1 1 1 1 1
2 2 2 3 2 2 2 1 1 1 1 2 2 2 2 2 2 2 2 3 3 4 3 2 2 3 1 1 1 1 1 1 1 1 1 1 1 1 1 1 2 2 2 1
1 1 1 1 1 2 1 1 1 1 2 2 2 2 2 2 2 2 2 2 2 2 2 2 1 1 1 1 1 1 1 1 1 1 1 1 1 1 1 2 2 2 2 2
Wind_Direction
251 249 196 222 225 204 204 206 214 242 248 262 260 262 273 286 289 284 285 290 287 287 292 303 307 299 285 275 267 239 215 218 230 234 228 219 223 231 235 237 235 220 215 221
276 254 228 255 248 225 227 226 235 254 264 264 264 257 275 284 280 281 281 283 288 294 297 294 289 288 290 278 271 255 234 239 241 232 233 232 232 232 233 245 240 219 215 218
257 289 324 266 233 215 218 217 204 231 248 277 291 270 261 268 270 270 274 278 281 282 278 278 280 278 275 265 267 259 253 256 246 233 234 240 246 239 233 236 226 216 215 217
198 88 235 245 220 202 215 239 223 233 265 265 257 264 267 254 252 271 279 282 284 286 287 287 284 285 283 271 258 256 259 260 256 242 248 254 251 258 254 238 224 218 218 222
165 217 268 284 254 184 193 257 233 234 267 283 291 328 290 256 264 266 269 270 272 275 281 289 290 288 291 283 278 273 270 268 266 253 250 254 258 263 270 244 232 223 217 220
170 197 240 255 262 190 126 271 255 222 252 275 342 310 275 294 300 291 289 281 282 289 293 293 295 292 273 269 270 269 272 273 272 260 252 258 261 267 279 255 235 221 223 227
205 227 258 259 252 114 165 247 264 225 242 244 227 238 267 301 305 295 291 292 296 299 294 286 290 286 264 268 264 271 279 281 282 279 272 264 270 275 275 267 246 231 232 241
180 213 252 226 140 181 222 261 264 259 251 255 261 275 284 293 298 308 312 314 313 311 308 306 298 263 262 269 276 288 289 288 289 291 289 290 275 280 274 252 242 245 243 264
195 216 241 182 197 228 210 230 253 255 268 262 268 278 286 290 295 303 306 311 312 303 307 308 297 248 252 276 286 287 283 281 293 302 297 289 263 270 282 278 242 252 248 267
240 258 264 260 261 271 236 234 256 254 258 259 266 279 288 288 293 297 301 306 311 318 313 311 312 298 260 272 278 267 269 278 282 285 297 300 286 270 245 246 244 241 240 248
241 265 293 280 256 253 267 283 289 288 273 258 261 281 282 284 287 292 303 310 309 306 300 300 308 306 302 289 263 255 265 268 274 272 274 282 283 275 264 259 239 241 239 238
226 223 209 242 241 240 257 277 272 286 301 296 273 274 279 282 284 290 302 309 310 303 298 302 307 305 301 290 254 241 254 259 257 257 265 264 271 321 336 310 296 283 274 268
227 235 225 244 263 260 247 261 268 262 258 280 289 278 279 289 295 302 305 306 300 296 295 299 306 307 305 294 264 242 246 252 249 244 246 246 247 256 296 325 317 305 300 295
218 194 248 254 260 277 268 268 280 287 284 282 291 303 307 307 313 314 309 307 305 303 303 306 307 304 307 296 269 253 251 251 251 245 238 238 241 244 242 262 293 306 310 301
252 216 216 238 273 294 302 315 336 320 321 323 319 317 317 312 308 309 311 314 318 315 315 318 311 307 312 306 283 262 254 252 250 247 242 242 243 244 244 251 264 284 310 307
248 249 187 204 240 260 273 275 275 288 299 303 306 305 299 295 299 306 312 318 317 309 309 312 307 308 314 310 298 282 265 265 264 247 243 244 241 241 244 247 254 263 269 278
175 223 226 233 245 253 249 245 247 261 275 281 286 291 297 309 316 317 319 318 306 298 300 300 302 311 312 309 300 289 280 272 266 250 241 241 242 241 242 244 251 259 266 274
212 216 214 210 218 239 261 266 262 261 259 268 280 285 292 297 298 302 309 319 323 320 312 304 302 308 305 304 297 287 279 268 251 243 242 243 248 247 249 252 256 260 268 280
206 200 210 223 225 224 236 254 261 262 270 272 270 274 281 283 285 293 302 312 315 312 309 308 309 311 301 297 304 288 281 276 275 264 251 255 259 254 253 257 261 260 262 267
217 205 212 233 237 228 240 252 258 262 267 263 270 289 300 297 292 291 293 285 280 282 292 301 307 303 298 289 294 284 272 264 264 269 267 258 256 259 259 263 265 265 264 263
220 217 225 237 257 259 243 240 240 256 271 260 250 265 280 290 291 287 286 294 296 298 300 305 306 298 293 291 280 271 262 258 257 257 263 267 271 275 276 274 276 278 278 280
212 212 227 235 246 270 272 256 246 253 267 273 276 279 286 290 294 290 271 269 290 307 312 301 299 295 299 293 276 264 260 260 260 261 264 266 265 268 275 283 280 283 287 290
217 217 221 227 234 257 281 272 258 250 254 260 264 268 273 278 275 277 291 294 295 305 310 292 299 303 306 301 276 263 261 260 264 266 266 263 262 265 271 282 288 291 293 295
211 216 222 217 201 229 264 277 279 272 267 272 270 266 265 278 284 273 274 294 305 310 308 302 310 313 319 315 282 266 258 258 264 264 263 264 265 268 276 284 286 287 288 292
204 203 197 192 211 234 248 266 295 298 301 295 292 287 273 263 268 283 289 290 302 315 313 313 320 325 332 312 295 276 264 264 266 265 263 268 272 276 284 289 288 292 296 296
207 215 219 222 227 232 234 233 251 273 285 295 302 302 305 301 291 291 294 297 300 317 319 311 313 323 330 321 310 304 294 297 309 312 307 304 301 300 297 294 296 291 292 292
210 218 221 241 247 231 223 223 232 255 261 265 284 298 307 309 308 311 312 315 317 319 316 316 321 333 336 334 334 334 331 327 320 315 315 314 308 301 304 302 298 297 295 293